Weather History for Rocky Mount, NC

Change the Weather History Date:

Monday, October 17, 2011

  Actual Average Record
Temperature  
Mean Temperature 70 °F -  
Max Temperature 86 °F 74 °F 86 °F (1989)
Min Temperature 55 °F 48 °F 32 °F (1970)
Cooling Degree Days 4    
Growing Degree Days 20 (Base 50)    
Moisture  
Dew Point 50 °F    
Average Humidity 55    
Maximum Humidity 80    
Minimum Humidity 26    
Precipitation  
Precipitation 0.00 in - - ()
Sea Level Pressure  
Sea Level Pressure 29.89 in    
Wind  
Wind Speed 9 mph (SSW)    
Max Wind Speed 15 mph    
Max Gust Speed 23 mph    
Visibility 10 miles    
Events      
Averages and records for this station are not official NWS values.
T = Trace of Precipitation, MM = Missing Value Source: NWS Daily Summary

Daily Weather History Graph

Daily Weather History Graph

Search for Another Location

Airport:

Trip Planner

Search our weather history database for the weather conditions in past years. The results will help you decide how hot, cold, wet, or windy it might be!

Date:

Astronomy

Oct. 17, 2011 Rise Set
Actual Time 7:19 AM EDT 6:33 PM EDT
Civil Twilight 6:53 AM EDT 6:59 PM EDT
Nautical Twilight 6:24 AM EDT 7:29 PM EDT
Astronomical Twilight 5:54 AM EDT 7:58 PM EDT
Moon 10:20 PM EDT (10/17) 12:16 PM EDT (10/17)
Length of Visible Light 12h 05m
Length of Day
11h 13m
Waning Gibbous, 74% of the Moon is Illuminated
Oct 17
Waning Gibbous
Oct 19
Last Quarter
Oct 26
New
Nov 2
First Quarter
Nov 10
Full

Hourly Weather History & Observations

Time (EDT) Temp. Dew Point Humidity Pressure Visibility Wind Dir Wind Speed Gust Speed Precip Events Conditions
12:53 AM 61.0 °F 46.9 °F 60% 29.95 in 10.0 mi SSW 10.4 mph - N/A   Clear
1:53 AM 60.1 °F 48.0 °F 64% 29.93 in 10.0 mi SSW 12.7 mph - N/A   Clear
2:53 AM 60.1 °F 48.0 °F 64% 29.91 in 10.0 mi SSW 13.8 mph - N/A   Clear
3:53 AM 60.8 °F 48.2 °F 63% 29.90 in 10.0 mi Variable 4.6 mph - N/A   Clear
4:53 AM 61.0 °F 48.0 °F 62% 29.92 in 10.0 mi WSW 6.9 mph - N/A   Clear
5:53 AM 55.4 °F 48.2 °F 77% 29.92 in 10.0 mi SSW 5.8 mph - N/A   Clear
6:53 AM 55.9 °F 48.0 °F 75% 29.92 in 10.0 mi SSW 4.6 mph - N/A   Clear
7:53 AM 55.0 °F 48.9 °F 80% 29.93 in 10.0 mi SSW 4.6 mph - N/A   Clear
8:53 AM 63.0 °F 50.0 °F 63% 29.94 in 10.0 mi SSW 6.9 mph - N/A   Clear
9:53 AM 68.0 °F 50.0 °F 52% 29.95 in 10.0 mi WSW 10.4 mph - N/A   Clear
10:53 AM 73.0 °F 51.1 °F 46% 29.94 in 10.0 mi SW 8.1 mph - N/A   Clear
11:53 AM 77.0 °F 51.1 °F 40% 29.92 in 10.0 mi SW 9.2 mph - N/A   Clear
12:53 PM 81.0 °F 51.1 °F 35% 29.90 in 10.0 mi SW 11.5 mph - N/A   Clear
1:53 PM 84.0 °F 51.1 °F 32% 29.86 in 10.0 mi SSW 13.8 mph 20.7 mph N/A   Clear
2:53 PM 84.2 °F 48.2 °F 29% 29.84 in 10.0 mi SSW 12.7 mph - N/A   Clear
3:53 PM 84.9 °F 46.0 °F 26% 29.82 in 10.0 mi South 15.0 mph 23.0 mph N/A   Clear
4:53 PM 84.0 °F 46.9 °F 27% 29.82 in 10.0 mi SSW 11.5 mph 18.4 mph N/A   Clear
5:53 PM 80.1 °F 48.9 °F 34% 29.83 in 10.0 mi South 6.9 mph - N/A   Clear
6:53 PM 71.1 °F 53.1 °F 53% 29.84 in 10.0 mi Calm Calm - N/A   Clear
7:53 PM 66.9 °F 52.0 °F 59% 29.86 in 10.0 mi South 5.8 mph - N/A   Clear
8:53 PM 61.0 °F 53.1 °F 75% 29.86 in 10.0 mi South 3.5 mph - N/A   Clear
9:53 PM 62.1 °F 53.1 °F 72% 29.87 in 10.0 mi South 4.6 mph - N/A   Clear
10:53 PM 66.0 °F 53.1 °F 63% 29.88 in 10.0 mi South 5.8 mph - N/A   Clear
11:53 PM 66.0 °F 57.0 °F 73% 29.87 in 10.0 mi South 6.9 mph - N/A   Clear